Ontario, OR

12:12 PM MST on February 25, 2017 (GMT -0700)
Ontario Municipal

Weather History for KONO - August, 2013

Change the Weather History Date:

Tuesday, August 20, 2013

  Actual Average Record
Temperature  
Mean Temperature 84 °F 72 °F  
Max Temperature 98 °F 91 °F 107 °F (1967)
Min Temperature 70 °F 54 °F 41 °F (1964)
Degree Days  
Heating Degree Days 0 0  
Month to date heating degree days 0 0  
Since 1 June heating degree days 39 57  
Since 1 July heating degree days 0 5  
Cooling Degree Days 19 8  
Month to date cooling degree days 293 203  
Year to date cooling degree days 1049 726  
Since 1 June cooling degree days 1002 690  
Growing Degree Days 34 (Base 50)    
Moisture  
Dew Point 41 °F    
Average Humidity 26    
Maximum Humidity 38    
Minimum Humidity 13    
Precipitation  
Precipitation 0.00 in 0.00 in 0.39 in (1954)
Month to date precipitation T 0.10  
Year to date precipitation 2.61 6.16  
Sea Level Pressure  
Sea Level Pressure 29.87 in    
Wind  
Wind Speed 10 mph (NW)    
Max Wind Speed 22 mph    
Max Gust Speed 28 mph    
Visibility 10 miles    
Events      
T = Trace of Precipitation, MM = Missing Value Source: NWS Daily Summary

Daily Weather History Graph

Daily Weather History Graph

Search for Another Location

Airport or City:

Trip Planner

Search our weather history database for the weather conditions in past years. The results will help you decide how hot, cold, wet, or windy it might be!

Date:

Astronomy

Aug. 20, 2013 Rise Set
Actual Time 6:57 AM MDT 8:43 PM MDT
Civil Twilight 6:27 AM MDT 9:14 PM MDT
Nautical Twilight 5:49 AM MDT 9:51 PM MDT
Astronomical Twilight 5:09 AM MDT 10:32 PM MDT
Moon 8:15 PM MDT (8/20) 6:34 AM MDT (8/20)
Length of Visible Light 14h 47m
Length of Day
13h 45m
Full, 100% of the Moon is Illuminated
Aug 20
Full
Aug 20
Full
Aug 28
Last Quarter
Sep 5
New
Sep 12
First Quarter

Hourly Weather History & Observations

Time (MDT) Temp. Dew Point Humidity Pressure Visibility Wind Dir Wind Speed Gust Speed Precip Events Conditions
12:53 AM 78.1 °F 44.1 °F 30% 29.86 in 10.0 mi WNW 12.7 mph - N/A   Clear
1:53 AM 77.0 °F 42.1 °F 29% 29.86 in 10.0 mi NW 15.0 mph 21.9 mph N/A   Clear
2:53 AM 77.0 °F 43.0 °F 30% 29.86 in 10.0 mi NW 16.1 mph - N/A   Clear
3:53 AM 75.0 °F 44.1 °F 33% 29.87 in 10.0 mi NW 18.4 mph 27.6 mph N/A   Clear
4:53 AM 73.9 °F 44.1 °F 34% 29.88 in 10.0 mi NW 17.3 mph - N/A   Clear
5:53 AM 73.0 °F 44.1 °F 35% 29.89 in 10.0 mi NW 12.7 mph - N/A   Clear
6:53 AM 71.1 °F 45.0 °F 39% 29.91 in 10.0 mi NW 11.5 mph - N/A   Clear
7:53 AM 71.1 °F 45.0 °F 39% 29.94 in 10.0 mi NNW 9.2 mph - N/A   Clear
8:53 AM 73.9 °F 46.0 °F 37% 29.96 in 10.0 mi WNW 11.5 mph - N/A   Clear
9:53 AM 79.0 °F 46.0 °F 31% 29.95 in 10.0 mi NW 9.2 mph - N/A   Clear
10:53 AM 82.9 °F 44.1 °F 25% 29.94 in 10.0 mi WNW 10.4 mph - N/A   Clear
11:53 AM 87.1 °F 43.0 °F 21% 29.93 in 10.0 mi NNW 6.9 mph - N/A   Clear
12:53 PM 89.1 °F 42.1 °F 19% 29.92 in 10.0 mi Calm Calm - N/A   Clear
1:53 PM 91.0 °F 41.0 °F 17% 29.90 in 10.0 mi Variable 4.6 mph - N/A   Clear
2:53 PM 93.9 °F 37.0 °F 14% 29.87 in 10.0 mi Variable 3.5 mph - N/A   Clear
3:53 PM 95.0 °F 39.0 °F 14% 29.85 in 10.0 mi Variable 3.5 mph - N/A   Clear
4:53 PM 96.1 °F 39.9 °F 14% 29.83 in 10.0 mi NE 3.5 mph - N/A   Clear
5:53 PM 98.1 °F 39.0 °F 13% 29.81 in 10.0 mi Variable 3.5 mph - N/A   Clear
6:53 PM 96.1 °F 37.0 °F 13% 29.80 in 10.0 mi NNE 8.1 mph - N/A   Clear
7:53 PM 93.0 °F 37.9 °F 15% 29.80 in 10.0 mi North 4.6 mph - N/A   Clear
8:53 PM 87.1 °F 35.1 °F 16% 29.82 in 10.0 mi NNW 12.7 mph - N/A   Clear
9:53 PM 84.9 °F 36.0 °F 17% 29.83 in 10.0 mi NW 17.3 mph - N/A   Clear
10:53 PM 81.0 °F 34.0 °F 18% 29.85 in 10.0 mi NW 11.5 mph - N/A   Clear
11:53 PM 80.1 °F 32.0 °F 17% 29.86 in 10.0 mi NW 17.3 mph - N/A   Clear